Home > Weather > Wesseling > Past weeks

Flag for Germany Weather for the Past 2 Weeks in Wesseling, North Rhine-Westphalia, Germany

Now
46 °F

Sprinkles. Partly cloudy.


Feels Like: 39 °F
Forecast: 40 / 50 °F
Wind: 17 mph from Southwest

Location: Koeln / Bonn

Current Time: Feb 8, 2016 at 7:17:10 PM

Latest Report: Feb 8, 2016 at 6:50 PM


Visibility: N/A

Pressure: 29.39 "Hg

Humidity: 66%

Dew point: 36 °F

Location of WesselingLocation

Historic Weather in Wesseling — Graph

°F

Wesseling Temperature Yesterday

Maximum temperature yesterday: 54 °F (at 6:20 AM)
Minimum temperature yesterday: 39 °F (at 9:20 PM)
Average temperature yesterday: 48 °F

High & Low Weather Summary for the Past Weeks

 TemperatureHumidityPressure
High57 °F (Jan 25, 2:50 PM)100% (Jan 24, 6:20 PM)30.42 "Hg (Jan 24, 6:20 PM)
Low32 °F (Jan 29, 3:20 AM)50% (Feb 8, 3:50 PM)29.30 "Hg (Feb 8, 1:20 PM)
Average46 °F81%30.03 "Hg
* Reported Jan 24 6:20 PM — Feb 8 6:20 PM, Wesseling, Weather by CustomWeather, © 2016

Note: Actual official high and low records may vary slightly from our data, if they occured in-between our weather recording intervals... More about our weather records

Advertising

Wesseling Weather History for the Previous 24 Hours

 ConditionsComfort  
Time TempWeatherWind HumidityBarometerVisibility
6:20 PM
Mon, Feb 8
46 °FSprinkles. Partly cloudy.16 mph66%29.39 "HgN/A
5:50 PM48 °FPartly cloudy.22 mph58%29.39 "HgN/A
5:20 PM48 °FScattered clouds.18 mph58%29.36 "HgN/A
4:50 PM48 °FPartly sunny.16 mph58%29.36 "HgN/A
4:20 PM50 °FPartly sunny.23 mph54%29.36 "HgN/A
3:50 PM52 °FScattered clouds.22 mph50%29.33 "HgN/A
3:20 PM50 °FScattered clouds.25 mph54%29.33 "HgN/A
2:50 PM50 °FPartly sunny.20 mph62%29.33 "HgN/A
2:20 PM52 °FScattered clouds.21 mph62%29.33 "HgN/A
1:50 PM50 °FScattered clouds.22 mph62%29.33 "HgN/A
1:20 PM50 °FScattered clouds.21 mph62%29.30 "HgN/A
12:50 PM48 °FPartly sunny.23 mph66%29.33 "HgN/A
12:20 PM48 °FPartly sunny.17 mph71%29.33 "HgN/A
11:50 AM48 °FPartly sunny.16 mph71%29.33 "HgN/A
11:20 AM48 °FLight rain. Partly sunny.14 mph82%29.36 "HgN/A
10:50 AM46 °FBroken clouds.12 mph87%29.36 "HgN/A
10:20 AM46 °FBroken clouds.12 mph87%29.36 "HgN/A
9:50 AM45 °FRain. Partly sunny.17 mph93%29.36 "HgN/A
9:20 AM46 °FRain. Overcast.13 mph93%29.36 "Hg6 mi
8:50 AM46 °FRain. Partly sunny.14 mph87%29.36 "Hg4 mi
8:20 AM48 °FLight rain. Broken clouds.18 mph76%29.33 "HgN/A
7:50 AM48 °FPassing clouds.18 mph71%29.36 "HgN/A
7:20 AM46 °FLight rain. Passing clouds.22 mph76%29.36 "HgN/A
6:50 AM46 °FPassing clouds.20 mph76%29.36 "HgN/A
6:20 AM46 °FPassing clouds.21 mph76%29.39 "HgN/A
5:50 AM46 °FPassing clouds.16 mph71%29.42 "HgN/A
5:20 AM46 °FPassing clouds.20 mph71%29.42 "HgN/A
4:20 AM46 °FPassing clouds.20 mph71%29.47 "HgN/A
3:50 AM46 °FPassing clouds.18 mph71%29.47 "HgN/A
3:20 AM46 °FPassing clouds.17 mph66%29.50 "HgN/A
2:50 AM46 °FPassing clouds.20 mph66%29.53 "HgN/A
2:20 AM46 °FPartly cloudy.20 mph66%29.53 "HgN/A
1:50 AM46 °FPassing clouds.17 mph66%29.56 "HgN/A
1:20 AM46 °FClear.17 mph66%29.56 "Hg10 mi
12:50 AM46 °FClear.17 mph66%29.59 "Hg10 mi
12:20 AM45 °FClear.14 mph71%29.59 "Hg10 mi
11:50 PM
Sun, Feb 7
45 °FClear.14 mph71%29.62 "Hg10 mi
11:20 PM43 °FClear.14 mph71%29.62 "Hg10 mi
10:50 PM43 °FPassing clouds.10 mph71%29.65 "HgN/A
10:20 PM43 °FClear.12 mph71%29.65 "Hg10 mi
9:50 PM41 °FClear.10 mph76%29.68 "Hg10 mi
9:20 PM39 °FClear.10 mph81%29.68 "Hg10 mi
8:50 PM43 °FClear.12 mph76%29.68 "Hg10 mi
8:20 PM41 °FClear.9 mph76%29.68 "Hg10 mi
7:50 PM43 °FClear.9 mph71%29.68 "Hg10 mi
7:20 PM45 °FClear.9 mph71%29.68 "Hg10 mi
Weather by CustomWeather, © 2016

See weather overviewHow to use our weather pages